GW0785 Weather Reports


Display with metric or nautical units.
time (UTC)temp
F
wind
direction
speed
MPH
gust
MPH
rain 1hr
in
rain 24hr
in
rain mn
in
humidity
%
barometer
mb
20260508164957 57 270 6.0 22.0 0.00 0.00 0.00 35 997.1
20260508164447 56 203 11.0 22.0 0.00 0.00 0.00 36 997.1
20260508163937 57 270 8.0 20.0 0.00 0.00 0.00 36 997.1
20260508163427 56 293 8.0 20.0 0.00 0.00 0.00 38 997.3
20260508161856 56 248 11.0 22.0 0.00 0.00 0.00 37 997.3
20260508161346 56 248 8.0 17.0 0.00 0.00 0.00 39 997.2
20260508160835 55 248 8.0 21.0 0.00 0.00 0.00 40 997.4
20260508160325 55 248 5.0 21.0 0.00 0.00 0.00 40 997.4
20260508155815 55 270 9.0 18.0 0.00 0.00 0.00 40 997.6
20260508155306 55 293 7.0 18.0 0.00 0.00 0.00 41 997.7
20260508154756 55 338 6.0 17.0 0.00 0.00 0.00 42 997.6
20260508154245 55 68 6.0 14.0 0.00 0.00 0.00 42 997.7
20260508153736 54 338 6.0 21.0 0.00 0.00 0.00 44 997.8
20260508152714 53 180 10.0 21.0 0.00 0.00 0.00 44 997.8
20260508152204 54 203 8.0 15.0 0.00 0.00 0.00 45 998.1
20260508151654 54 248 8.0 17.0 0.00 0.00 0.00 44 998.2
20260508151144 54 248 9.0 17.0 0.00 0.00 0.00 44 998.0
20260508150634 53 270 8.0 17.0 0.00 0.00 0.00 45 998.4
20260508150124 53 248 11.0 20.0 0.00 0.00 0.00 45 998.1
20260508145614 53 248 11.0 20.0 0.00 0.00 0.00 45 998.2
20260508144554 52 270 8.0 17.0 0.00 0.00 0.00 47 998.1
20260508143533 52 270 8.0 21.0 0.00 0.00 0.00 47 998.2
20260508142514 51 248 9.0 24.0 0.00 0.00 0.00 47 998.2
20260508142004 51 270 9.0 21.0 0.00 0.00 0.00 48 998.0
20260508140942 50 270 6.0 20.0 0.00 0.00 0.00 49 998.1
20260508140434 50 270 10.0 20.0 0.00 0.00 0.00 49 997.9
20260508135923 50 270 8.0 18.0 0.00 0.00 0.00 48 998.0
20260508135413 50 270 10.0 21.0 0.00 0.00 0.00 49 998.0
20260508134903 50 248 8.0 23.0 0.00 0.00 0.00 49 998.2
20260508134353 50 270 14.0 23.0 0.00 0.00 0.00 49 998.3
20260508133842 50 270 8.0 17.0 0.00 0.00 0.00 49 998.1
20260508133332 50 225 8.0 17.0 0.00 0.00 0.00 49 997.9
20260508132312 50 135 6.0 23.0 0.00 0.00 0.00 50 997.8
20260508131802 49 248 11.0 23.0 0.00 0.00 0.00 50 998.1
20260508131251 49 203 8.0 18.0 0.00 0.00 0.00 51 997.7
20260508130742 49 203 11.0 18.0 0.00 0.00 0.00 50 997.9
20260508125724 49 203 11.0 18.0 0.00 0.00 0.00 51 997.6
20260508125211 49 248 8.0 17.0 0.00 0.00 0.00 52 997.6
20260508124701 49 293 10.0 16.0 0.00 0.00 0.00 53 997.8
20260508123643 48 180 8.0 22.0 0.00 0.00 0.00 55 997.6
20260508122621 48 270 8.0 18.0 0.00 0.00 0.00 56 997.7
20260508122111 47 180 7.0 17.0 0.00 0.00 0.00 57 997.7
20260508121600 47 203 4.0 17.0 0.00 0.00 0.00 58 997.6
20260508121051 46 225 4.0 14.0 0.00 0.00 0.00 59 997.7
20260508120540 46 248 8.0 14.0 0.00 0.00 0.00 60 997.7
20260508120030 46 225 4.0 14.0 0.00 0.00 0.00 60 997.4
20260508115520 46 248 4.0 21.0 0.00 0.00 0.00 60 997.7
20260508114500 46 135 6.0 16.0 0.00 0.00 0.00 60 997.3
20260508113950 46 293 5.0 16.0 0.00 0.00 0.00 60 997.4
20260508113440 46 225 6.0 11.0 0.00 0.00 0.00 60 997.2
20260508112930 46 203 4.0 15.0 0.00 0.00 0.00 61 997.2
20260508112419 46 248 5.0 15.0 0.00 0.00 0.00 61 997.4
20260508111909 46 180 5.0 13.0 0.00 0.00 0.00 62 997.1
20260508111359 45 203 5.0 13.0 0.00 0.00 0.00 63 997.2
20260508110849 45 315 4.0 13.0 0.00 0.00 0.00 63 997.0
20260508110339 45 225 6.0 13.0 0.00 0.00 0.00 62 997.1
20260508105829 45 225 6.0 11.0 0.00 0.00 0.00 63 996.9
20260508105320 45 225 6.0 13.0 0.00 0.00 0.00 63 996.9
20260508104810 45 225 3.0 13.0 0.00 0.00 0.00 63 996.9
20260508104258 45 158 6.0 13.0 0.00 0.00 0.00 62 996.6
20260508103748 46 225 6.0 13.0 0.00 0.00 0.00 62 997.1
20260508102218 46 225 7.0 14.0 0.00 0.00 0.00 61 997.2
20260508101158 46 158 7.0 15.0 0.00 0.00 0.00 61 997.0
20260508100648 46 248 8.0 13.0 0.00 0.00 0.00 60 996.7
20260508095628 46 68 5.0 13.0 0.00 0.00 0.00 61 996.7
20260508095119 46 248 4.0 11.0 0.00 0.00 0.00 62 996.8
20260508093547 45 270 4.0 13.0 0.00 0.00 0.00 62 996.3
20260508093039 45 270 6.0 13.0 0.00 0.00 0.00 61 996.2
20260508092017 45 203 7.0 16.0 0.00 0.00 0.00 62 996.1
20260508091516 44 158 4.0 11.0 0.00 0.00 0.00 62 995.9
20260508090956 44 270 4.0 11.0 0.00 0.00 0.00 63 996.1
20260508090446 44 248 4.0 11.0 0.00 0.00 0.00 62 996.1
20260508085937 44 270 5.0 11.0 0.00 0.00 0.00 62 995.8
20260508085426 44 225 4.0 11.0 0.00 0.00 0.00 62 996.0
20260508084917 44 203 6.0 14.0 0.00 0.00 0.00 61 996.1
20260508084406 44 180 6.0 14.0 0.00 0.00 0.00 61 996.0
20260508083856 44 225 5.0 15.0 0.00 0.00 0.00 61 995.9
20260508083346 44 203 4.0 15.0 0.00 0.00 0.00 61 995.9
20260508082836 44 270 6.0 11.0 0.00 0.00 0.00 61 995.9
20260508081815 44 293 4.0 11.0 0.00 0.00 0.00 61 996.0
20260508081305 44 248 4.0 11.0 0.00 0.00 0.00 61 995.9
20260508080245 44 203 4.0 11.0 0.00 0.00 0.00 60 995.7
20260508075736 44 270 4.0 14.0 0.00 0.00 0.00 60 995.7
20260508075224 44 248 7.0 15.0 0.00 0.00 0.00 60 995.6
20260508074714 44 203 5.0 15.0 0.00 0.00 0.00 60 995.8
20260508074204 44 270 7.0 11.0 0.00 0.00 0.00 60 995.7
20260508073655 44 248 4.0 13.0 0.00 0.00 0.00 60 995.8
20260508072635 44 270 5.0 11.0 0.00 0.00 0.00 60 995.7
20260508072124 44 248 5.0 13.0 0.00 0.00 0.00 59 995.7
20260508071614 44 293 4.0 13.0 0.00 0.00 0.00 59 995.9
20260508071104 44 293 4.0 8.0 0.00 0.00 0.00 58 995.8
20260508070553 44 248 3.0 0.0 0.00 0.00 0.00 58 996.0
20260508065550 45 225 4.0 11.0 0.00 0.00 0.00 56 996.0
20260508065031 45 180 4.0 11.0 0.00 0.00 0.00 56 995.7
20260508064521 45 225 4.0 11.0 0.00 0.00 0.00 57 995.9
20260508064011 45 293 3.0 11.0 0.00 0.00 0.00 56 995.9
20260508063501 45 225 4.0 11.0 0.00 0.00 0.00 56 995.8
20260508062950 46 293 7.0 11.0 0.00 0.00 0.00 56 995.9
20260508062440 46 248 4.0 13.0 0.00 0.00 0.00 56 995.9
20260508061930 46 225 7.0 14.0 0.00 0.00 0.00 56 996.0
20260508061419 46 315 6.0 14.0 0.00 0.00 0.00 56 996.2
20260508060400 46 270 4.0 14.0 0.00 0.00 0.00 59 996.0
20260508055850 46 180 6.0 14.0 0.00 0.00 0.00 59 996.1
20260508054829 46 225 3.0 11.0 0.00 0.00 0.00 62 996.4
20260508054320 46 248 6.0 11.0 0.00 0.00 0.00 63 996.3
20260508053808 46 203 4.0 11.0 0.00 0.00 0.00 64 996.3
20260508053258 46 248 6.0 11.0 0.00 0.00 0.00 66 996.5
20260508052748 46 225 3.0 11.0 0.00 0.00 0.00 67 996.4
20260508052238 46 180 3.0 9.0 0.00 0.00 0.00 68 996.4
20260508051730 46 270 4.0 9.0 0.00 0.00 0.00 69 996.7
20260508051219 46 158 3.0 11.0 0.00 0.00 0.00 69 996.5
20260508050708 46 203 5.0 13.0 0.00 0.00 0.00 70 996.7
20260508050158 47 203 6.0 13.0 0.00 0.00 0.00 70 996.7
20260508045138 47 203 5.0 11.0 0.00 0.00 0.00 70 996.6
20260508044628 47 225 5.0 11.0 0.00 0.00 0.00 70 996.5
20260508044117 47 203 5.0 15.0 0.00 0.00 0.00 69 996.6
20260508043607 48 203 5.0 15.0 0.00 0.00 0.00 70 996.3
20260508043107 48 248 5.0 15.0 0.00 0.00 0.00 71 996.1
20260508042548 48 270 8.0 15.0 0.00 0.00 0.00 71 996.3
20260508042037 48 203 7.0 14.0 0.00 0.00 0.00 72 996.1
20260508041016 48 203 3.0 11.0 0.00 0.00 0.00 74 996.1
20260508040507 48 203 5.0 11.0 0.00 0.00 0.00 76 996.2
20260508035956 48 225 4.0 11.0 0.00 0.00 0.00 77 996.2
20260508035447 48 203 2.0 9.0 0.00 0.00 0.00 78 996.2
20260508034937 48 248 4.0 9.0 0.00 0.00 0.00 79 996.0
20260508034426 48 225 4.0 8.0 0.00 0.00 0.00 79 995.8
20260508033916 48 225 3.0 11.0 0.00 0.00 0.00 78 995.9
20260508032856 49 248 2.0 8.0 0.00 0.00 0.00 77 995.7
20260508031836 49 315 3.0 11.0 0.00 0.00 0.00 78 995.7
20260508031326 49 315 2.0 9.0 0.00 0.00 0.00 78 995.5
20260508030816 49 248 2.0 7.0 0.00 0.00 0.00 78 995.7
20260508030306 49 180 3.0 7.0 0.00 0.00 0.00 79 995.7
20260508025755 49 248 2.0 6.0 0.00 0.00 0.30 78 995.3
20260508025245 50 248 3.0 7.0 0.00 0.00 0.30 78 995.6
20260508024735 50 203 2.0 7.0 0.00 0.00 0.30 77 995.6
20260508024225 51 293 4.0 7.0 0.00 0.00 0.30 77 995.9
20260508023715 51 203 2.0 9.0 0.00 0.00 0.30 76 995.8
20260508023205 51 248 2.0 9.0 0.00 0.00 0.30 75 995.6
20260508022655 51 158 4.0 8.0 0.00 0.00 0.30 74 995.5
20260508022145 52 225 3.0 13.0 0.00 0.00 0.30 74 995.4
20260508021635 52 203 4.0 13.0 0.00 0.00 0.30 74 995.6
20260508021124 52 225 6.0 8.0 0.00 0.00 0.30 74 995.7
20260508020620 52 293 4.0 8.0 0.00 0.00 0.30 74 995.6
20260508020105 52 225 3.0 9.0 0.00 0.00 0.30 74 995.5
20260508015554 52 225 3.0 9.0 0.00 0.00 0.30 73 995.7
20260508015044 52 225 2.0 11.0 0.00 0.00 0.30 73 995.7
20260508014534 53 248 4.0 11.0 0.00 0.00 0.30 72 995.7
20260508014024 53 225 4.0 9.0 0.00 0.00 0.30 72 995.9
20260508013003 53 225 4.0 11.0 0.00 0.00 0.30 71 995.7
20260508012454 53 203 4.0 9.0 0.00 0.00 0.30 72 995.8
20260508011944 53 270 4.0 9.0 0.00 0.00 0.30 71 995.7
20260508011434 53 158 4.0 13.0 0.00 0.00 0.30 72 995.9
20260508010923 53 293 4.0 13.0 0.00 0.00 0.30 72 995.8
20260508010413 53 225 4.0 11.0 0.00 0.00 0.30 72 995.9
20260508005903 53 293 5.0 11.0 0.00 0.00 0.30 72 996.2
20260508005353 53 225 4.0 11.0 0.00 0.00 0.30 72 996.1
20260508004843 53 158 4.0 11.0 0.00 0.00 0.30 73 996.4
20260508004332 53 225 4.0 11.0 0.00 0.00 0.30 73 996.5
20260508003822 53 225 5.0 11.0 0.00 0.00 0.30 72 996.4
20260508003312 53 248 5.0 14.0 0.00 0.00 0.30 72 996.3
20260508002252 53 270 5.0 16.0 0.00 0.00 0.30 73 996.2
20260508000722 53 203 7.0 20.0 0.00 0.00 0.30 71 996.4
20260508000212 54 225 9.0 20.0 0.00 0.00 0.30 71 996.4
20260507235702 54 315 6.0 15.0 0.00 0.00 0.30 69 996.3
20260507235151 54 203 6.0 14.0 0.00 0.00 0.30 69 996.3
20260507234642 55 225 8.0 16.0 0.00 0.00 0.30 69 996.4
20260507234131 55 270 8.0 16.0 0.00 0.00 0.30 68 996.2
20260507233621 55 203 10.0 16.0 0.00 0.00 0.30 68 996.3
20260507232601 55 225 7.0 18.0 0.00 0.00 0.30 68 996.4
20260507231541 55 180 8.0 17.0 0.00 0.00 0.30 67 996.1
20260507231031 55 270 7.0 15.0 0.00 0.00 0.30 67 996.1
20260507230521 55 225 8.0 15.0 0.00 0.00 0.30 66 996.1
20260507230014 55 180 5.0 14.0 0.00 0.00 0.30 67 995.9
20260507225500 56 270 7.0 14.0 0.00 0.00 0.30 67 996.1
20260507224950 56 203 7.0 13.0 0.00 0.00 0.30 66 995.8
20260507224440 56 180 7.0 17.0 0.00 0.00 0.30 66 995.6
20260507223930 56 248 8.0 17.0 0.00 0.00 0.30 65 995.5
20260507223420 56 293 7.0 17.0 0.00 0.00 0.30 65 995.6
20260507222909 56 270 8.0 15.0 0.00 0.00 0.30 65 995.3
20260507222359 56 270 7.0 15.0 0.00 0.00 0.30 65 995.0
20260507221339 56 270 4.0 11.0 0.00 0.00 0.30 66 994.7
20260507220318 56 270 6.0 15.0 0.00 0.00 0.30 64 994.4
20260507215809 57 158 5.0 15.0 0.00 0.00 0.30 64 994.2
20260507215300 57 270 6.0 11.0 0.00 0.00 0.30 64 993.9
20260507214749 56 248 4.0 13.0 0.00 0.00 0.30 65 994.3
20260507214239 57 248 8.0 13.0 0.00 0.00 0.30 64 994.1
20260507213729 57 248 4.0 16.0 0.00 0.00 0.30 65 993.8
20260507213218 57 225 8.0 16.0 0.00 0.00 0.30 64 993.6
20260507212708 57 270 4.0 11.0 0.00 0.00 0.30 64 993.4
20260507212158 57 270 9.0 15.0 0.00 0.00 0.30 64 993.6
20260507211647 57 293 8.0 15.0 0.00 0.00 0.30 64 994.0
20260507211139 57 225 7.0 15.0 0.00 0.00 0.30 64 993.9
20260507205608 57 248 5.0 14.0 0.00 0.00 0.30 65 994.3
20260507205057 57 270 5.0 15.0 0.00 0.00 0.30 64 994.5
20260507204547 57 203 5.0 15.0 0.00 0.00 0.30 65 994.2
20260507204037 57 248 4.0 13.0 0.00 0.00 0.30 66 994.3
20260507203528 57 225 4.0 15.0 0.00 0.00 0.30 66 994.2
20260507203016 57 270 4.0 15.0 0.00 0.00 0.30 66 994.6
20260507202507 57 270 5.0 16.0 0.00 0.00 0.30 66 994.6
20260507201446 57 225 6.0 16.0 0.00 0.00 0.30 66 994.7
20260507200936 58 203 8.0 20.0 0.00 0.00 0.30 66 994.2
20260507200427 58 270 10.0 20.0 0.00 0.00 0.30 65 994.0
20260507195406 58 135 7.0 17.0 0.00 0.00 0.30 66 993.9
20260507194856 58 203 8.0 20.0 0.00 0.00 0.30 66 993.8
20260507194346 58 225 8.0 20.0 0.00 0.00 0.30 65 993.6
20260507193836 58 248 5.0 16.0 0.00 0.00 0.30 66 993.5
20260507193326 58 248 8.0 17.0 0.00 0.00 0.30 65 993.3
20260507192816 58 248 8.0 17.0 0.00 0.00 0.30 66 993.2
20260507192306 58 315 8.0 20.0 0.00 0.00 0.30 65 992.9
20260507191755 58 203 12.0 20.0 0.00 0.00 0.30 64 992.8
20260507191245 58 203 11.0 18.0 0.00 0.00 0.30 64 992.7
20260507190735 58 248 5.0 14.0 0.00 0.00 0.30 65 992.9
20260507190225 58 248 7.0 17.0 0.00 0.00 0.30 66 993.1
20260507184654 58 248 7.0 18.0 0.00 0.00 0.30 64 993.2
20260507184145 59 180 10.0 18.0 0.00 0.00 0.30 62 993.0
20260507183634 59 315 8.0 18.0 0.00 0.00 0.30 62 993.3
20260507183124 59 293 8.0 18.0 0.00 0.00 0.30 61 993.4
20260507182624 59 248 11.0 18.0 0.00 0.00 0.30 61 993.5
20260507182101 59 270 6.0 16.0 0.00 0.00 0.30 60 994.1
20260507180534 59 338 7.0 16.0 0.00 0.00 0.30 60 994.3
20260507180024 59 180 9.0 16.0 0.00 0.00 0.30 59 994.5
20260507175513 59 180 6.0 16.0 0.00 0.00 0.30 60 994.4
20260507175004 60 203 8.0 16.0 0.00 0.00 0.30 59 994.5
20260507173434 60 225 8.0 16.0 0.00 0.00 0.30 60 994.9
20260507172923 60 225 6.0 16.0 0.00 0.00 0.30 60 994.4
20260507172413 60 225 8.0 16.0 0.00 0.00 0.30 59 994.8
20260507171902 59 203 10.0 16.0 0.00 0.00 0.30 59 994.5
20260507170843 59 203 8.0 20.0 0.00 0.00 0.30 60 994.5
20260507170332 59 248 8.0 16.0 0.00 0.00 0.30 59 994.5
20260507165312 59 270 4.0 14.0 0.00 0.00 0.30 60 994.4